FW7128 Weather Reports


time (UTC)temp
C
wind
direction
speed
KPH
gust
KPH
rain 1hr
cm
rain 24hr
cm
rain mn
cm
humidity
%
barometer
mb
20260507032809 13 84 8.0 14.5 0.00 0.00 0.00 72 1017.0
20260507032306 14 67 6.4 8.0 0.00 0.00 0.00 71 1017.2
20260507031802 14 118 3.2 8.0 0.00 0.00 0.00 70 1016.9
20260507031259 14 104 4.8 14.5 0.00 0.00 0.00 69 1016.9
20260507030755 15 105 4.8 14.5 0.00 0.00 0.00 69 1017.0
20260507030253 15 135 0.0 24.1 0.00 0.00 0.00 68 1016.9
20260507025750 15 67 11.3 11.3 0.00 0.00 0.00 68 1016.8
20260507025247 15 106 3.2 12.9 0.00 0.00 0.00 67 1016.9
20260507024745 15 114 4.8 14.5 0.00 0.00 0.00 67 1016.8
20260507024242 15 86 4.8 14.5 0.00 0.00 0.00 66 1016.5
20260507023737 15 76 11.3 20.9 0.00 0.00 0.00 66 1016.4
20260507023235 15 126 3.2 14.5 0.00 0.00 0.00 66 1016.6
20260507022732 15 72 11.3 11.3 0.00 0.00 0.00 66 1016.5
20260507022228 15 84 4.8 11.3 0.00 0.00 0.00 66 1016.4
20260507021724 15 110 4.8 12.9 0.00 0.00 0.00 66 1016.3
20260507021220 15 68 8.0 11.3 0.00 0.00 0.00 65 1016.2
20260507020719 15 94 8.0 11.3 0.00 0.00 0.00 65 1016.4
20260507020214 16 84 3.2 14.5 0.00 0.00 0.00 64 1016.0
20260507015712 16 82 8.0 14.5 0.00 0.00 0.00 63 1016.1
20260507015210 16 99 3.2 12.9 0.00 0.00 0.00 63 1015.8
20260507014706 16 102 0.0 20.9 0.00 0.00 0.00 62 1015.7
20260507014202 16 89 8.0 17.7 0.00 0.00 0.00 62 1016.0
20260507013659 16 74 16.1 27.4 0.00 0.00 0.00 60 1015.7
20260507013156 16 85 9.7 17.7 0.00 0.00 0.00 59 1015.8
20260507012654 17 69 9.7 17.7 0.00 0.00 0.00 58 1015.6
20260507012149 17 89 4.8 11.3 0.00 0.00 0.00 58 1015.3
20260507011647 17 82 9.7 11.3 0.00 0.00 0.00 57 1015.3
20260507011143 17 108 0.0 8.0 0.00 0.00 0.00 56 1015.4
20260507010638 17 81 6.4 17.7 0.00 0.00 0.00 56 1015.3
20260507010134 17 67 11.3 16.1 0.00 0.00 0.00 56 1015.2
20260507005632 17 255 0.0 11.3 0.00 0.00 0.00 57 1015.3
20260507005127 17 112 0.0 6.4 0.00 0.00 0.00 56 1015.1
20260507004625 18 129 0.0 11.3 0.00 0.00 0.00 55 1015.2
20260507004122 18 81 0.0 20.9 0.00 0.00 0.00 55 1015.0
20260507003618 18 103 0.0 24.1 0.00 0.00 0.00 55 1015.1
20260507003113 18 80 4.8 11.3 0.00 0.00 0.00 55 1015.2
20260507002610 18 82 8.0 8.0 0.00 0.00 0.00 54 1015.0
20260507002106 18 89 0.0 14.5 0.00 0.00 0.00 54 1014.9
20260507001603 18 92 11.3 27.4 0.00 0.00 0.00 53 1014.8
20260507001100 18 87 11.3 14.5 0.00 0.00 0.00 53 1014.9
20260507000556 19 66 4.8 17.7 0.00 0.00 0.00 52 1014.8
20260507000052 18 135 0.0 4.8 0.00 0.00 0.00 54 1014.8
20260506235550 19 86 0.0 11.3 0.00 0.00 0.00 52 1014.9
20260506235044 19 233 0.0 14.5 0.00 0.00 0.00 52 1014.7
20260506234542 20 107 0.0 14.5 0.00 0.00 0.00 50 1014.7
20260506234039 20 73 12.9 17.7 0.00 0.00 0.00 48 1014.4
20260506233536 20 227 0.0 6.4 0.00 0.00 0.00 51 1014.5
20260506233033 20 83 8.0 17.7 0.00 0.00 0.00 49 1014.6
20260506232529 20 44 8.0 11.3 0.00 0.00 0.00 48 1014.5
20260506232025 20 96 8.0 16.1 0.00 0.00 0.00 50 1014.4
20260506231522 20 66 8.0 12.9 0.00 0.00 0.00 47 1014.5
20260506231020 21 173 3.2 6.4 0.00 0.00 0.00 47 1014.4
20260506230516 20 202 0.0 6.4 0.00 0.00 0.00 46 1014.4
20260506230014 20 79 11.3 11.3 0.00 0.00 0.00 47 1014.3
20260506225511 21 91 9.7 9.7 0.00 0.00 0.00 45 1014.1
20260506225007 21 152 4.8 8.0 0.00 0.00 0.00 44 1014.3
20260506224504 21 157 3.2 8.0 0.00 0.00 0.00 44 1013.9
20260506224001 20 212 3.2 14.5 0.00 0.00 0.00 46 1014.1
20260506223456 21 75 8.0 12.9 0.00 0.00 0.00 44 1014.1
20260506222953 19 261 0.0 6.4 0.00 0.00 0.00 46 1014.2
20260506222450 20 227 3.2 8.0 0.00 0.00 0.00 46 1014.2
20260506221947 20 112 0.0 8.0 0.00 0.00 0.00 47 1013.9
20260506221444 20 126 0.0 14.5 0.00 0.00 0.00 46 1014.1
20260506220942 21 97 4.8 9.7 0.00 0.00 0.00 45 1013.9
20260506220437 20 75 8.0 8.0 0.00 0.00 0.00 45 1014.1
20260506215934 21 228 0.0 11.3 0.00 0.00 0.00 47 1014.2
20260506215430 21 71 4.8 16.1 0.00 0.00 0.00 45 1014.1
20260506214926 21 232 4.8 8.0 0.00 0.00 0.00 47 1014.1
20260506214423 21 134 3.2 11.3 0.00 0.00 0.00 45 1014.1
20260506213921 22 93 6.4 16.1 0.00 0.00 0.00 43 1014.2
20260506213418 21 62 3.2 8.0 0.00 0.00 0.00 43 1014.4
20260506212915 20 248 0.0 3.2 0.00 0.00 0.00 47 1014.3
20260506212411 20 66 0.0 8.0 0.00 0.00 0.00 46 1014.5
20260506211906 20 144 0.0 11.3 0.00 0.00 0.00 46 1014.2
20260506211403 21 43 8.0 8.0 0.00 0.00 0.00 44 1014.5
20260506210900 20 315 0.0 9.7 0.00 0.00 0.00 47 1014.5
20260506210356 20 73 6.4 11.3 0.00 0.00 0.00 46 1014.7
20260506205854 18 180 0.0 17.7 0.00 0.00 0.00 52 1014.5
20260506205349 20 230 0.0 8.0 0.00 0.00 0.00 45 1014.7
20260506204846 20 164 6.4 9.7 0.00 0.00 0.00 47 1014.7
20260506204344 20 142 4.8 8.0 0.00 0.00 0.00 47 1014.8
20260506203841 20 204 4.8 8.0 0.00 0.00 0.00 48 1014.8
20260506203338 18 170 0.0 8.0 0.00 0.00 0.00 51 1014.7
20260506202835 18 99 4.8 8.0 0.00 0.00 0.00 48 1015.0
20260506202332 18 240 6.4 9.7 0.00 0.00 0.00 53 1015.0
20260506201829 18 95 12.9 35.4 0.00 0.00 0.00 52 1014.8
20260506201326 20 94 16.1 30.6 0.00 0.00 0.00 50 1015.0
20260506200823 19 89 6.4 12.9 0.00 0.00 0.00 47 1015.0
20260506200319 18 257 4.8 6.4 0.00 0.00 0.00 52 1014.9
20260506195815 18 227 0.0 8.0 0.00 0.00 0.00 48 1015.0
20260506195312 17 55 0.0 19.3 0.00 0.00 0.00 53 1015.2
20260506194809 18 103 4.8 8.0 0.00 0.00 0.00 49 1015.2
20260506194306 17 67 0.0 11.3 0.00 0.00 0.00 51 1015.2
20260506193804 16 252 0.0 6.4 0.00 0.00 0.00 53 1015.2
20260506193300 16 105 0.0 6.4 0.00 0.00 0.00 53 1015.4
20260506192756 18 99 6.4 17.7 0.00 0.00 0.00 51 1015.4
20260506192253 17 93 9.7 9.7 0.00 0.00 0.00 53 1015.3
20260506191750 16 77 8.0 8.0 0.00 0.00 0.00 54 1015.4
20260506191247 16 95 3.2 17.7 0.00 0.00 0.00 58 1015.4
20260506190744 15 71 0.0 8.0 0.00 0.00 0.00 57 1015.1
20260506190240 17 94 19.3 22.5 0.00 0.00 0.00 53 1015.2
20260506185737 16 73 0.0 8.0 0.00 0.00 0.00 56 1015.3
20260506185234 16 157 3.2 8.0 0.00 0.00 0.00 55 1015.3
20260506184731 15 78 6.4 12.9 0.00 0.00 0.00 57 1015.4
20260506184228 15 163 0.0 14.5 0.00 0.00 0.00 58 1015.5
20260506183725 15 109 0.0 6.4 0.00 0.00 0.00 58 1015.4
20260506183221 15 87 9.7 14.5 0.00 0.00 0.00 55 1015.3
20260506182718 15 88 0.0 12.9 0.00 0.00 0.00 57 1015.3
20260506182215 13 126 4.8 8.0 0.00 0.00 0.00 60 1015.2
20260506181713 14 77 11.3 20.9 0.00 0.00 0.00 58 1015.3
20260506181210 15 72 9.7 9.7 0.00 0.00 0.00 56 1015.4
20260506180707 15 120 0.0 12.9 0.00 0.00 0.00 59 1015.6
20260506180203 15 53 0.0 9.7 0.00 0.00 0.00 57 1015.4
20260506175659 15 227 3.2 9.7 0.00 0.00 0.00 57 1015.4
20260506175156 13 172 4.8 6.4 0.00 0.00 0.00 57 1015.6
20260506174649 13 164 0.0 6.4 0.00 0.00 0.00 58 1015.7
20260506174145 13 146 3.2 17.7 0.00 0.00 0.00 57 1015.6
20260506173643 14 217 0.0 11.3 0.00 0.00 0.00 57 1015.8
20260506173140 13 99 4.8 8.0 0.00 0.00 0.00 58 1015.8
20260506172637 14 76 0.0 9.7 0.00 0.00 0.00 55 1015.7
20260506172133 13 198 4.8 6.4 0.00 0.00 0.00 58 1015.7
20260506171631 14 239 0.0 9.7 0.00 0.00 0.00 56 1015.9
20260506171128 13 179 8.0 9.7 0.00 0.00 0.00 57 1015.9
20260506170620 13 151 3.2 8.0 0.00 0.00 0.00 58 1015.9
20260506170117 13 145 0.0 4.8 0.00 0.00 0.00 59 1015.8
20260506165615 13 81 6.4 8.0 0.00 0.00 0.00 57 1015.8
20260506165111 13 121 4.8 12.9 0.00 0.00 0.00 57 1016.0
20260506164608 13 171 0.0 8.0 0.00 0.00 0.00 57 1016.1
20260506164106 13 126 0.0 32.2 0.00 0.00 0.00 56 1016.2
20260506163601 14 131 3.2 14.5 0.00 0.00 0.00 56 1016.1
20260506163057 14 204 0.0 11.3 0.00 0.00 0.00 55 1016.2
20260506162554 13 143 3.2 9.7 0.00 0.00 0.00 56 1016.1
20260506162051 13 131 3.2 14.5 0.00 0.00 0.00 56 1016.3
20260506161549 13 289 0.0 9.7 0.00 0.00 0.00 56 1016.4
20260506161045 13 192 0.0 8.0 0.00 0.00 0.00 59 1016.4
20260506160543 12 267 4.8 9.7 0.00 0.00 0.00 58 1016.5
20260506160040 13 15 6.4 16.1 0.00 0.00 0.00 59 1016.6
20260506155539 12 102 4.8 9.7 0.00 0.00 0.00 60 1016.5
20260506153715 12 138 3.2 12.9 0.00 0.00 0.00 62 1016.5
20260506153213 12 120 8.0 11.3 0.00 0.00 0.00 63 1016.6
20260506152709 12 146 3.2 16.1 0.00 0.00 0.00 63 1016.4
20260506152207 12 127 0.0 9.7 0.00 0.00 0.00 62 1016.5
20260506151706 12 122 4.8 14.5 0.00 0.00 0.00 63 1016.5
20260506151202 12 172 0.0 25.7 0.00 0.00 0.00 62 1016.7
20260506150658 12 86 16.1 17.7 0.00 0.00 0.00 60 1016.6
20260506150155 12 88 4.8 20.9 0.00 0.00 0.00 61 1016.7
20260506145652 12 102 3.2 8.0 0.00 0.00 0.00 63 1016.4
20260506145149 12 193 0.0 14.5 0.00 0.00 0.00 61 1016.6
20260506144647 11 131 4.8 11.3 0.00 0.00 0.00 63 1016.6
20260506144143 12 74 16.1 16.1 0.00 0.00 0.00 62 1016.6
20260506143641 12 131 0.0 17.7 0.00 0.00 0.00 62 1016.5
20260506143139 11 97 3.2 16.1 0.00 0.00 0.00 62 1016.5
20260506142637 11 107 6.4 20.9 0.00 0.00 0.00 63 1016.3
20260506142135 11 92 8.0 14.5 0.00 0.00 0.00 63 1016.3
20260506141632 11 93 0.0 9.7 0.00 0.00 0.00 63 1016.2
20260506141130 11 50 6.4 8.0 0.00 0.00 0.00 64 1015.7
20260506140628 11 124 3.2 9.7 0.00 0.00 0.00 65 1015.8
20260506140125 11 125 3.2 9.7 0.00 0.00 0.00 65 1015.9
20260506135622 11 106 0.0 12.9 0.00 0.00 0.00 66 1015.6
20260506135118 11 142 4.8 8.0 0.00 0.00 0.00 67 1015.9
20260506134614 11 185 3.2 20.9 0.00 0.00 0.00 66 1015.9
20260506134110 11 129 0.0 19.3 0.00 0.00 0.00 66 1015.7
20260506133608 11 105 6.4 9.7 0.00 0.00 0.00 67 1015.6
20260506133105 11 147 0.0 14.5 0.00 0.00 0.00 67 1015.3
20260506132602 11 118 6.4 8.0 0.00 0.00 0.00 67 1015.4
20260506132059 11 54 8.0 9.7 0.00 0.00 0.00 67 1015.0
20260506131556 11 161 8.0 9.7 0.00 0.00 0.00 67 1015.0
20260506131052 10 126 6.4 11.3 0.00 0.00 0.00 67 1014.9
20260506130549 10 197 0.0 9.7 0.00 0.00 0.00 68 1015.0
20260506130047 10 113 6.4 8.0 0.00 0.00 0.00 68 1014.8
20260506125545 10 108 8.0 8.0 0.00 0.00 0.00 68 1014.7
20260506125042 10 103 6.4 9.7 0.00 0.00 0.00 68 1014.6
20260506124540 10 122 4.8 6.4 0.00 0.00 0.00 69 1014.5
20260506124038 10 114 3.2 12.9 0.00 0.00 0.00 68 1014.5
20260506123535 10 120 6.4 8.0 0.00 0.00 0.00 69 1014.3
20260506123033 10 145 0.0 9.7 0.00 0.00 0.00 69 1014.1
20260506122529 10 124 0.0 8.0 0.00 0.00 0.00 70 1014.3
20260506122028 10 124 4.8 8.0 0.00 0.00 0.00 69 1014.1
20260506121525 10 139 3.2 12.9 0.00 0.00 0.00 70 1014.3
20260506121021 10 136 0.0 8.0 0.00 0.00 0.00 70 1014.3
20260506120520 10 158 0.0 8.0 0.00 0.00 0.00 70 1014.2
20260506120017 10 145 0.0 6.4 0.00 0.00 0.00 70 1013.8
20260506115514 10 116 0.0 9.7 0.00 0.00 0.00 71 1013.8
20260506115013 10 96 6.4 6.4 0.00 0.00 0.00 71 1014.1
20260506114509 10 110 4.8 8.0 0.00 0.00 0.00 71 1013.7
20260506114008 10 149 0.0 11.3 0.00 0.00 0.00 71 1013.8
20260506113505 10 125 6.4 8.0 0.00 0.00 0.00 72 1013.6
20260506113002 10 102 6.4 8.0 0.00 0.00 0.00 72 1013.7
20260506112459 10 123 3.2 9.7 0.00 0.00 0.00 72 1013.7
20260506111956 10 145 3.2 6.4 0.00 0.00 0.00 73 1013.5
20260506111454 10 113 0.0 9.7 0.00 0.00 0.00 73 1013.7
20260506110951 10 95 4.8 6.4 0.00 0.00 0.00 73 1013.6
20260506110449 10 178 3.2 9.7 0.00 0.00 0.00 73 1013.9
20260506105945 10 165 6.4 11.3 0.00 0.00 0.00 73 1013.9
20260506105442 10 124 0.0 6.4 0.00 0.00 0.00 74 1013.6
20260506104939 10 134 6.4 8.0 0.00 0.00 0.00 75 1013.8
20260506104437 10 104 0.0 8.0 0.00 0.00 0.00 76 1013.6
20260506103935 10 173 4.8 8.0 0.00 0.00 0.00 76 1013.6
20260506103432 10 114 4.8 6.4 0.00 0.00 0.00 77 1013.5
20260506102929 10 114 3.2 12.9 0.00 0.00 0.00 77 1013.6
20260506102427 10 147 0.0 8.0 0.00 0.00 0.00 78 1013.1
20260506101924 10 138 4.8 6.4 0.00 0.00 0.00 79 1013.2
20260506101420 10 146 0.0 11.3 0.00 0.00 0.00 79 1013.2
20260506100918 10 113 4.8 9.7 0.00 0.00 0.00 79 1013.2
20260506100416 10 116 4.8 8.0 0.00 0.00 0.00 79 1013.2
20260506095914 10 140 11.3 14.5 0.00 0.00 0.00 79 1013.1
20260506095412 10 132 0.0 12.9 0.00 0.00 0.00 80 1012.9
20260506094908 10 191 0.0 11.3 0.00 0.00 0.00 81 1012.9
20260506094407 10 55 0.0 6.4 0.00 0.00 0.00 81 1013.1
20260506093904 10 91 4.8 8.0 0.00 0.00 0.00 81 1013.0
20260506093401 10 129 3.2 14.5 0.00 0.00 0.00 80 1012.9
20260506092859 10 107 3.2 8.0 0.00 0.00 0.00 80 1012.8
20260506092357 10 93 6.4 12.9 0.00 0.00 0.00 81 1013.4
20260506091853 10 188 0.0 8.0 0.00 0.00 0.00 81 1013.2
20260506091351 10 131 4.8 9.7 0.00 0.00 0.00 81 1013.0
20260506090848 10 116 4.8 6.4 0.00 0.00 0.00 81 1013.2
20260506090346 10 131 0.0 6.4 0.00 0.00 0.00 81 1012.9
20260506085842 10 138 0.0 8.0 0.00 0.00 0.00 81 1012.9
20260506085339 10 140 0.0 8.0 0.00 0.00 0.00 81 1013.1
20260506084835 10 126 3.2 6.4 0.00 0.00 0.00 80 1013.0
20260506084332 10 133 3.2 6.4 0.00 0.00 0.00 80 1012.8
20260506083829 10 167 0.0 9.7 0.00 0.00 0.00 80 1012.8
20260506083326 10 116 3.2 8.0 0.00 0.00 0.00 80 1012.8
20260506082824 10 122 4.8 8.0 0.00 0.00 0.00 79 1012.7
20260506082320 10 199 0.0 8.0 0.00 0.00 0.00 79 1012.5
20260506081816 10 114 4.8 9.7 0.00 0.00 0.00 78 1012.4
20260506081314 10 122 0.0 8.0 0.00 0.00 0.00 78 1012.2
20260506080812 10 122 3.2 8.0 0.00 0.00 0.00 78 1012.2
20260506080308 11 103 4.8 6.4 0.00 0.00 0.00 79 1012.3
20260506073252 11 150 0.0 8.0 0.00 0.00 0.00 78 1012.0
20260506072749 11 129 4.8 8.0 0.00 0.00 0.00 79 1012.0
20260506072246 11 118 0.0 8.0 0.00 0.00 0.00 79 1012.1
20260506071744 11 116 0.0 8.0 0.00 0.00 0.00 79 1012.2
20260506071242 11 116 4.8 6.4 0.00 0.00 0.00 79 1012.2
20260506070738 11 193 3.2 6.4 0.00 0.00 0.00 79 1012.1
20260506070235 11 116 9.7 11.3 0.00 0.00 0.00 78 1012.3
20260506062212 11 133 4.8 6.4 0.00 0.00 0.00 78 1011.6
20260506061708 11 135 4.8 6.4 0.00 0.00 0.00 78 1011.7
20260506061206 11 149 0.0 6.4 0.00 0.00 0.00 78 1011.8
20260506060705 11 156 0.0 4.8 0.00 0.00 0.00 77 1011.6
20260506060201 11 175 4.8 8.0 0.00 0.00 0.00 77 1011.9
20260506051133 11 96 4.8 11.3 0.00 0.00 0.00 76 1011.3
20260506050631 11 153 0.0 8.0 0.00 0.00 0.00 76 1011.1
20260506050128 11 146 3.2 4.8 0.00 0.00 0.00 76 1011.4
20260506045121 11 61 4.8 8.0 0.00 0.00 0.00 75 1011.4
20260506044619 11 84 0.0 8.0 0.00 0.00 0.00 75 1011.0
20260506044116 11 137 3.2 6.4 0.00 0.00 0.00 75 1011.2
20260506043613 11 84 0.0 6.4 0.00 0.00 0.00 74 1011.3
20260506043111 12 89 0.0 9.7 0.00 0.00 0.00 74 1011.5
20260506042610 12 121 0.0 8.0 0.00 0.00 0.00 74 1011.4
20260506042108 12 102 0.0 8.0 0.00 0.00 0.00 74 1011.3
20260506041606 12 116 3.2 8.0 0.00 0.00 0.00 74 1011.3
20260506041102 12 194 0.0 11.3 0.00 0.00 0.00 74 1011.0
20260506040600 12 304 0.0 8.0 0.00 0.00 0.00 74 1011.2
20260506040056 12 120 0.0 6.4 0.00 0.00 0.00 74 1011.3
20260506035553 12 77 6.4 8.0 0.00 0.00 0.00 73 1011.2
20260506035050 12 160 6.4 12.9 0.00 0.00 0.00 73 1011.1
20260506034547 12 97 14.5 14.5 0.00 0.00 0.00 73 1011.1
20260506034044 12 126 6.4 8.0 0.00 0.00 0.00 73 1010.9
20260506033542 12 184 0.0 11.3 0.00 0.00 0.00 73 1011.1
20260506033038 12 204 0.0 6.4 0.00 0.00 0.00 73 1010.7